Location: Most
(50.5133°N, 13.6207°E)
Time: 22:49:28
(UTC+02:00)

ISS - Pass Details

Date: 21 September 2019
Orbit: 411 x 421 km, 51.6° (Epoch: 17 September)

Event Time Altitude Azimuth Distance (km) Brightness Sun altitude
Rises 20:34:46 0° 225° (SW) 2,335 0.4 -14.5°
Reaches altitude 10° 20:36:57 10° 216° (SW) 1,476 -0.8 -14.9°
Maximum altitude 20:39:59 34° 150° (SSE) 697 -3.1 -15.3°
Enters shadow 20:40:17 33° 137° (SE) 709 -3.1 -15.4°
